Time,TemperatureF,DewpointF,PressureIn,WindDirection,WindDirectionDegrees,WindSpeedMPH,WindSpeedGustMPH,Humidity,HourlyPrecipIn,Conditions,Clouds,dailyrainin,SoftwareType,DateUTC
2013-06-27 00:01:00,68.6,68.6,30.04,SE,146,0.0,0.0,100,0.00,,,0.00,Wunderground v.1.15,2013-06-27 04:01:00,
2013-06-27 00:06:00,68.5,68.5,30.04,SE,146,0.0,0.0,100,0.00,,,0.00,Wunderground v.1.15,2013-06-27 04:06:00,
2013-06-27 00:11:00,68.4,68.4,30.05,SE,146,0.0,0.0,100,0.00,,,0.00,Wunderground v.1.15,2013-06-27 04:11:00,
2013-06-27 00:16:00,68.3,68.3,30.05,SE,146,0.0,0.0,100,0.00,,,0.00,Wunderground v.1.15,2013-06-27 04:16:00,
2013-06-27 00:21:00,68.3,68.3,30.04,SE,146,0.0,0.0,100,0.00,,,0.00,Wunderground v.1.15,2013-06-27 04:21:00,
2013-06-27 00:26:00,68.2,68.2,30.04,SE,146,0.0,0.0,100,0.00,,,0.00,Wunderground v.1.15,2013-06-27 04:26:00,
2013-06-27 00:31:00,68.1,68.1,30.04,SE,146,0.0,0.0,100,0.00,,,0.00,Wunderground v.1.15,2013-06-27 04:31:00,
2013-06-27 00:36:00,68.0,68.0,30.04,SE,146,0.0,0.0,100,0.00,,,0.00,Wunderground v.1.15,2013-06-27 04:36:00,
2013-06-27 00:41:00,67.9,67.9,30.04,SE,146,0.0,0.0,100,0.00,,,0.00,Wunderground v.1.15,2013-06-27 04:41:00,
2013-06-27 00:46:00,67.8,67.8,30.04,SE,146,0.0,0.0,100,0.00,,,0.00,Wunderground v.1.15,2013-06-27 04:46:00,
2013-06-27 00:51:00,67.8,67.8,30.04,SE,146,0.0,0.0,100,0.00,,,0.00,Wunderground v.1.15,2013-06-27 04:51:00,
2013-06-27 00:56:00,67.7,67.7,30.04,SE,146,0.0,0.0,100,0.00,,,0.00,Wunderground v.1.15,2013-06-27 04:56:00,
2013-06-27 01:01:00,67.6,67.6,30.04,SE,146,0.0,0.0,100,0.00,,,0.00,Wunderground v.1.15,2013-06-27 05:01:00,
2013-06-27 01:06:00,67.5,67.5,30.03,SE,146,0.0,0.0,100,0.00,,,0.00,Wunderground v.1.15,2013-06-27 05:06:00,
2013-06-27 01:11:00,67.5,67.5,30.03,SE,146,0.0,0.0,100,0.00,,,0.00,Wunderground v.1.15,2013-06-27 05:11:00,
2013-06-27 01:16:00,67.4,67.4,30.03,SE,146,0.0,0.0,100,0.00,,,0.00,Wunderground v.1.15,2013-06-27 05:16:00,
2013-06-27 01:21:00,67.4,67.4,30.03,SE,146,0.0,0.0,100,0.00,,,0.00,Wunderground v.1.15,2013-06-27 05:21:00,
2013-06-27 01:26:00,67.3,67.3,30.03,SE,146,0.0,1.0,100,0.00,,,0.00,Wunderground v.1.15,2013-06-27 05:26:00,
2013-06-27 01:31:00,67.3,67.3,30.03,SE,146,0.0,0.0,100,0.00,,,0.00,Wunderground v.1.15,2013-06-27 05:31:00,
2013-06-27 01:36:00,67.3,67.3,30.02,SE,146,0.0,0.0,100,0.00,,,0.00,Wunderground v.1.15,2013-06-27 05:36:00,
2013-06-27 01:41:00,67.2,67.2,30.02,SE,146,0.0,0.0,100,0.00,,,0.00,Wunderground v.1.15,2013-06-27 05:41:00,
2013-06-27 01:46:00,67.1,67.1,30.02,SE,146,0.0,0.0,100,0.00,,,0.00,Wunderground v.1.15,2013-06-27 05:46:00,
2013-06-27 01:51:00,67.1,67.1,30.01,SE,146,0.0,0.0,100,0.00,,,0.00,Wunderground v.1.15,2013-06-27 05:51:00,
2013-06-27 01:56:00,67.0,67.0,30.01,SE,146,0.0,0.0,100,0.00,,,0.00,Wunderground v.1.15,2013-06-27 05:56:00,
2013-06-27 02:01:00,67.0,67.0,30.00,SE,146,0.0,0.0,100,0.00,,,0.00,Wunderground v.1.15,2013-06-27 06:01:00,
2013-06-27 02:06:00,67.0,67.0,30.00,SE,146,0.0,0.0,100,0.00,,,0.00,Wunderground v.1.15,2013-06-27 06:06:00,
2013-06-27 02:11:00,67.0,67.0,30.00,SE,146,0.0,0.0,100,0.00,,,0.00,Wunderground v.1.15,2013-06-27 06:11:00,
2013-06-27 02:16:00,66.9,66.9,30.00,SE,146,0.0,0.0,100,0.00,,,0.00,Wunderground v.1.15,2013-06-27 06:16:00,
2013-06-27 02:21:00,66.8,66.8,30.00,SE,146,0.0,0.0,100,0.00,,,0.00,Wunderground v.1.15,2013-06-27 06:21:00,
2013-06-27 02:26:00,66.8,66.8,30.00,SE,146,0.0,0.0,100,0.00,,,0.00,Wunderground v.1.15,2013-06-27 06:26:00,
2013-06-27 02:31:00,66.8,66.8,30.00,SE,146,0.0,0.0,100,0.00,,,0.00,Wunderground v.1.15,2013-06-27 06:31:00,
2013-06-27 02:36:00,66.7,66.7,30.00,SE,146,0.0,0.0,100,0.00,,,0.00,Wunderground v.1.15,2013-06-27 06:36:00,
2013-06-27 02:41:00,66.7,66.7,30.00,SE,146,0.0,0.0,100,0.00,,,0.00,Wunderground v.1.15,2013-06-27 06:41:00,
2013-06-27 02:46:00,66.8,66.8,30.00,SE,146,0.0,0.0,100,0.00,,,0.00,Wunderground v.1.15,2013-06-27 06:46:00,
2013-06-27 02:51:00,66.8,66.8,29.99,SE,146,0.0,0.0,100,0.00,,,0.00,Wunderground v.1.15,2013-06-27 06:51:00,
2013-06-27 02:56:00,66.8,66.8,29.99,SE,146,0.0,0.0,100,0.00,,,0.00,Wunderground v.1.15,2013-06-27 06:56:00,
2013-06-27 03:01:00,66.9,66.9,29.99,SE,146,0.0,0.0,100,0.00,,,0.00,Wunderground v.1.15,2013-06-27 07:01:00,
2013-06-27 03:06:00,66.9,66.9,29.99,SE,146,0.0,0.0,100,0.00,,,0.00,Wunderground v.1.15,2013-06-27 07:06:00,
2013-06-27 03:11:00,67.0,67.0,29.98,SE,146,0.0,0.0,100,0.00,,,0.00,Wunderground v.1.15,2013-06-27 07:11:00,
2013-06-27 03:16:00,67.0,67.0,29.98,SE,146,0.0,1.0,100,0.00,,,0.00,Wunderground v.1.15,2013-06-27 07:16:00,
2013-06-27 03:21:00,67.0,67.0,29.98,SE,146,0.0,0.0,100,0.00,,,0.00,Wunderground v.1.15,2013-06-27 07:21:00,
2013-06-27 03:26:00,67.0,67.0,29.97,SE,146,0.0,0.0,100,0.00,,,0.00,Wunderground v.1.15,2013-06-27 07:26:00,
2013-06-27 03:31:00,67.0,67.0,29.97,SE,146,0.0,0.0,100,0.00,,,0.00,Wunderground v.1.15,2013-06-27 07:31:00,
2013-06-27 03:37:00,67.1,67.1,29.96,SE,146,0.0,0.0,100,0.00,,,0.00,Wunderground v.1.15,2013-06-27 07:37:00,
2013-06-27 03:42:00,67.1,67.1,29.96,SE,146,0.0,1.0,100,0.00,,,0.00,Wunderground v.1.15,2013-06-27 07:42:00,
2013-06-27 03:47:00,67.1,67.1,29.95,SE,146,0.0,1.0,100,0.00,,,0.00,Wunderground v.1.15,2013-06-27 07:47:00,
2013-06-27 03:52:00,67.1,67.1,29.95,SE,146,0.0,0.0,100,0.00,,,0.00,Wunderground v.1.15,2013-06-27 07:52:00,
2013-06-27 03:57:00,67.1,67.1,29.96,SE,146,0.0,0.0,100,0.00,,,0.00,Wunderground v.1.15,2013-06-27 07:57:00,
2013-06-27 04:02:00,67.1,67.1,29.96,SE,146,0.0,0.0,100,0.00,,,0.00,Wunderground v.1.15,2013-06-27 08:02:00,
2013-06-27 04:07:00,67.2,67.2,29.96,SE,146,0.0,0.0,100,0.00,,,0.00,Wunderground v.1.15,2013-06-27 08:07:00,
2013-06-27 04:12:00,67.1,67.1,29.96,SE,146,0.0,0.0,100,0.00,,,0.00,Wunderground v.1.15,2013-06-27 08:12:00,
2013-06-27 04:17:00,67.1,67.1,29.97,SE,146,0.0,0.0,100,0.00,,,0.00,Wunderground v.1.15,2013-06-27 08:17:00,
2013-06-27 04:22:00,67.1,67.1,29.97,SE,146,0.0,0.0,100,0.00,,,0.00,Wunderground v.1.15,2013-06-27 08:22:00,
2013-06-27 04:27:00,67.1,67.1,29.98,SE,146,0.0,0.0,100,0.00,,,0.00,Wunderground v.1.15,2013-06-27 08:27:00,
2013-06-27 04:32:00,67.1,67.1,30.00,WSW,254,0.0,3.0,100,0.00,,,0.00,Wunderground v.1.15,2013-06-27 08:32:00,
2013-06-27 04:37:00,67.1,67.1,30.00,WSW,254,1.0,3.0,100,0.00,,,0.00,Wunderground v.1.15,2013-06-27 08:37:00,
2013-06-27 04:42:00,67.2,67.2,30.00,WSW,254,0.0,1.0,100,0.00,,,0.00,Wunderground v.1.15,2013-06-27 08:42:00,
2013-06-27 04:47:00,67.3,67.3,29.99,WSW,254,0.0,1.0,100,0.00,,,0.00,Wunderground v.1.15,2013-06-27 08:47:00,
2013-06-27 04:52:00,67.3,67.3,30.00,WSW,254,0.0,0.0,100,0.00,,,0.00,Wunderground v.1.15,2013-06-27 08:52:00,
2013-06-27 04:57:00,67.3,67.3,30.00,WSW,254,0.0,0.0,100,0.00,,,0.00,Wunderground v.1.15,2013-06-27 08:57:00,
2013-06-27 05:02:00,67.3,67.3,30.00,WSW,254,0.0,0.0,100,0.00,,,0.01,Wunderground v.1.15,2013-06-27 09:02:00,
2013-06-27 05:07:00,67.3,67.3,30.00,WSW,254,0.0,0.0,100,0.00,,,0.01,Wunderground v.1.15,2013-06-27 09:07:00,
2013-06-27 05:12:00,67.2,67.2,30.00,WSW,254,0.0,0.0,100,0.00,,,0.01,Wunderground v.1.15,2013-06-27 09:12:00,
2013-06-27 05:17:00,67.2,67.2,30.01,WSW,254,0.0,0.0,100,0.04,,,0.02,Wunderground v.1.15,2013-06-27 09:17:00,
2013-06-27 05:22:00,67.2,67.2,30.00,WSW,254,0.0,0.0,100,0.09,,,0.03,Wunderground v.1.15,2013-06-27 09:22:00,
2013-06-27 05:27:00,67.1,67.1,30.00,WSW,254,0.0,0.0,100,0.09,,,0.03,Wunderground v.1.15,2013-06-27 09:27:00,
2013-06-27 05:32:00,67.0,67.0,30.00,WSW,254,0.0,0.0,100,0.06,,,0.04,Wunderground v.1.15,2013-06-27 09:32:00,
2013-06-27 05:37:00,66.5,66.5,30.00,WSW,254,0.0,0.0,100,0.06,,,0.04,Wunderground v.1.15,2013-06-27 09:37:00,
2013-06-27 05:42:00,66.2,66.2,29.99,WSW,254,0.0,0.0,100,0.08,,,0.05,Wunderground v.1.15,2013-06-27 09:42:00,
2013-06-27 05:47:00,66.1,66.1,29.99,WSW,254,0.0,0.0,100,0.08,,,0.05,Wunderground v.1.15,2013-06-27 09:47:00,
2013-06-27 05:52:00,66.0,66.0,29.99,WSW,254,0.0,0.0,100,0.06,,,0.06,Wunderground v.1.15,2013-06-27 09:52:00,
2013-06-27 05:57:00,65.9,65.9,29.99,WSW,254,0.0,0.0,100,0.06,,,0.06,Wunderground v.1.15,2013-06-27 09:57:00,
2013-06-27 06:02:00,65.8,65.8,30.00,WSW,254,0.0,0.0,100,0.07,,,0.07,Wunderground v.1.15,2013-06-27 10:02:00,
2013-06-27 06:07:00,65.7,65.7,29.99,WSW,254,0.0,1.0,100,0.06,,,0.07,Wunderground v.1.15,2013-06-27 10:07:00,
2013-06-27 06:12:00,65.7,65.7,30.00,WSW,254,0.0,0.0,100,0.05,,,0.08,Wunderground v.1.15,2013-06-27 10:12:00,
2013-06-27 06:17:00,65.6,65.6,30.00,WSW,254,0.0,0.0,100,0.05,,,0.08,Wunderground v.1.15,2013-06-27 10:17:00,
2013-06-27 06:22:00,65.5,65.5,29.99,WSW,254,0.0,0.0,100,0.07,,,0.09,Wunderground v.1.15,2013-06-27 10:22:00,
2013-06-27 06:27:00,65.5,65.5,29.99,WSW,254,0.0,0.0,100,0.07,,,0.09,Wunderground v.1.15,2013-06-27 10:27:00,
2013-06-27 06:32:00,65.5,65.5,29.99,WSW,254,0.0,0.0,100,0.05,,,0.09,Wunderground v.1.15,2013-06-27 10:32:00,
2013-06-27 06:37:00,65.5,65.5,29.99,WSW,254,0.0,0.0,100,0.04,,,0.10,Wunderground v.1.15,2013-06-27 10:37:00,
2013-06-27 06:42:00,65.4,65.4,29.98,WSW,254,0.0,0.0,100,0.04,,,0.10,Wunderground v.1.15,2013-06-27 10:42:00,
2013-06-27 06:47:00,65.2,65.2,29.98,WSW,254,0.0,0.0,100,0.04,,,0.10,Wunderground v.1.15,2013-06-27 10:47:00,
2013-06-27 06:52:00,65.2,65.2,29.98,WSW,254,0.0,0.0,100,0.04,,,0.11,Wunderground v.1.15,2013-06-27 10:52:00,
2013-06-27 06:57:00,65.0,65.0,29.98,WSW,254,0.0,0.0,100,0.04,,,0.11,Wunderground v.1.15,2013-06-27 10:57:00,
2013-06-27 07:02:00,65.0,65.0,29.98,WSW,254,0.0,0.0,100,0.04,,,0.11,Wunderground v.1.15,2013-06-27 11:02:00,
2013-06-27 07:07:00,65.0,65.0,29.98,WSW,254,0.0,0.0,100,0.04,,,0.11,Wunderground v.1.15,2013-06-27 11:07:00,
2013-06-27 07:12:00,65.0,65.0,29.98,West,260,0.0,0.0,100,0.00,,,0.11,Wunderground v.1.15,2013-06-27 11:12:00,
2013-06-27 07:17:00,65.0,65.0,29.97,West,260,0.0,0.0,100,0.00,,,0.11,Wunderground v.1.15,2013-06-27 11:17:00,
2013-06-27 07:22:00,65.0,65.0,29.97,West,271,0.0,0.0,100,0.00,,,0.11,Wunderground v.1.15,2013-06-27 11:22:00,
2013-06-27 07:27:00,65.2,65.2,29.97,West,271,0.0,0.0,100,0.00,,,0.11,Wunderground v.1.15,2013-06-27 11:27:00,
2013-06-27 07:32:00,65.2,65.2,29.97,West,271,0.0,0.0,100,0.00,,,0.11,Wunderground v.1.15,2013-06-27 11:32:00,
2013-06-27 07:37:00,65.3,65.3,29.97,West,276,0.0,2.0,100,0.00,,,0.11,Wunderground v.1.15,2013-06-27 11:37:00,
2013-06-27 07:42:00,65.4,65.4,29.98,West,276,0.0,0.0,100,0.00,,,0.11,Wunderground v.1.15,2013-06-27 11:42:00,
2013-06-27 07:47:00,65.5,65.5,29.97,West,276,0.0,0.0,100,0.00,,,0.11,Wunderground v.1.15,2013-06-27 11:47:00,
2013-06-27 07:52:00,65.6,65.6,29.97,West,276,0.0,0.0,100,0.00,,,0.11,Wunderground v.1.15,2013-06-27 11:52:00,
2013-06-27 07:57:00,65.7,65.7,29.96,West,276,0.0,1.0,100,0.00,,,0.11,Wunderground v.1.15,2013-06-27 11:57:00,
2013-06-27 08:02:00,65.8,65.8,29.97,West,276,0.0,0.0,100,0.00,,,0.11,Wunderground v.1.15,2013-06-27 12:02:00,
2013-06-27 08:07:00,66.0,66.0,29.97,West,276,0.0,0.0,100,0.00,,,0.11,Wunderground v.1.15,2013-06-27 12:07:00,
2013-06-27 08:12:00,66.1,66.1,29.97,West,276,0.0,0.0,100,0.00,,,0.11,Wunderground v.1.15,2013-06-27 12:12:00,
2013-06-27 08:17:00,66.1,66.1,29.97,West,276,0.0,0.0,100,0.00,,,0.11,Wunderground v.1.15,2013-06-27 12:17:00,
2013-06-27 08:22:00,66.1,66.1,29.97,West,275,0.0,0.0,100,0.00,,,0.11,Wunderground v.1.15,2013-06-27 12:22:00,
2013-06-27 08:27:00,66.1,66.1,29.97,WSW,255,0.0,0.0,100,0.00,,,0.11,Wunderground v.1.15,2013-06-27 12:27:00,
2013-06-27 08:32:00,66.1,66.1,29.97,WSW,255,0.0,0.0,100,0.00,,,0.11,Wunderground v.1.15,2013-06-27 12:32:00,
2013-06-27 08:37:00,66.0,66.0,29.97,WSW,255,0.0,0.0,100,0.00,,,0.11,Wunderground v.1.15,2013-06-27 12:37:00,
2013-06-27 08:42:00,65.9,65.9,29.97,WSW,255,0.0,0.0,100,0.00,,,0.11,Wunderground v.1.15,2013-06-27 12:42:00,
2013-06-27 08:47:00,65.9,65.9,29.96,WSW,255,0.0,0.0,100,0.00,,,0.11,Wunderground v.1.15,2013-06-27 12:47:00,
2013-06-27 08:52:00,65.8,65.8,29.96,WSW,255,0.0,0.0,100,0.00,,,0.11,Wunderground v.1.15,2013-06-27 12:52:00,
2013-06-27 08:57:00,65.8,65.8,29.96,WSW,255,0.0,0.0,100,0.00,,,0.11,Wunderground v.1.15,2013-06-27 12:57:00,
2013-06-27 09:02:00,65.9,65.9,29.96,WSW,255,0.0,0.0,100,0.00,,,0.11,Wunderground v.1.15,2013-06-27 13:02:00,
2013-06-27 09:07:00,66.0,66.0,29.96,WSW,255,0.0,0.0,100,0.00,,,0.11,Wunderground v.1.15,2013-06-27 13:07:00,
2013-06-27 09:12:00,66.1,66.1,29.96,WSW,255,0.0,0.0,100,0.00,,,0.11,Wunderground v.1.15,2013-06-27 13:12:00,
2013-06-27 09:17:00,66.1,66.1,29.95,WSW,255,0.0,1.0,100,0.00,,,0.11,Wunderground v.1.15,2013-06-27 13:17:00,
2013-06-27 09:22:00,66.2,66.2,29.95,WSW,255,0.0,0.0,100,0.00,,,0.11,Wunderground v.1.15,2013-06-27 13:22:00,
2013-06-27 09:27:00,66.2,66.2,29.95,WSW,255,0.0,1.0,100,0.00,,,0.11,Wunderground v.1.15,2013-06-27 13:27:00,
2013-06-27 09:32:00,66.4,66.4,29.95,WSW,255,0.0,0.0,100,0.00,,,0.11,Wunderground v.1.15,2013-06-27 13:32:00,
2013-06-27 09:37:00,66.4,66.4,29.95,WSW,255,0.0,0.0,100,0.00,,,0.11,Wunderground v.1.15,2013-06-27 13:37:00,
2013-06-27 09:42:00,66.5,66.5,29.95,WSW,255,0.0,0.0,100,0.00,,,0.11,Wunderground v.1.15,2013-06-27 13:42:00,
2013-06-27 09:47:00,66.5,66.5,29.95,WSW,255,0.0,0.0,100,0.00,,,0.11,Wunderground v.1.15,2013-06-27 13:47:00,
2013-06-27 09:52:00,66.7,66.7,29.96,WSW,255,0.0,0.0,100,0.00,,,0.11,Wunderground v.1.15,2013-06-27 13:52:00,
2013-06-27 09:57:00,66.8,66.8,29.95,WSW,255,0.0,0.0,100,0.00,,,0.11,Wunderground v.1.15,2013-06-27 13:57:00,
2013-06-27 10:02:00,67.0,67.0,29.96,WSW,255,0.0,0.0,100,0.00,,,0.11,Wunderground v.1.15,2013-06-27 14:02:00,
2013-06-27 10:07:00,67.2,67.2,29.95,WSW,255,0.0,0.0,100,0.00,,,0.11,Wunderground v.1.15,2013-06-27 14:07:00,
2013-06-27 10:12:00,67.3,67.3,29.95,WSW,255,0.0,0.0,100,0.00,,,0.11,Wunderground v.1.15,2013-06-27 14:12:00,
2013-06-27 10:17:00,67.5,67.5,29.95,WSW,255,0.0,0.0,100,0.00,,,0.11,Wunderground v.1.15,2013-06-27 14:17:00,
2013-06-27 10:22:00,67.6,67.6,29.95,NNE,18,0.0,0.0,100,0.00,,,0.11,Wunderground v.1.15,2013-06-27 14:22:00,
2013-06-27 10:27:00,67.7,67.7,29.95,NNE,18,0.0,1.0,100,0.00,,,0.11,Wunderground v.1.15,2013-06-27 14:27:00,
2013-06-27 10:32:00,68.0,68.0,29.94,NNE,18,0.0,1.0,100,0.00,,,0.11,Wunderground v.1.15,2013-06-27 14:32:00,
2013-06-27 10:37:00,68.1,68.1,29.94,NNE,18,0.0,1.0,100,0.00,,,0.11,Wunderground v.1.15,2013-06-27 14:37:00,
2013-06-27 10:42:00,68.3,68.3,29.94,NNE,18,0.0,0.0,100,0.00,,,0.11,Wunderground v.1.15,2013-06-27 14:42:00,
2013-06-27 10:47:00,68.6,68.6,29.94,NNE,18,0.0,0.0,100,0.00,,,0.11,Wunderground v.1.15,2013-06-27 14:47:00,
2013-06-27 10:52:00,69.1,69.1,29.94,NNE,18,0.0,0.0,100,0.00,,,0.11,Wunderground v.1.15,2013-06-27 14:52:00,
2013-06-27 10:57:00,69.5,69.5,29.95,NNE,18,0.0,0.0,100,0.00,,,0.11,Wunderground v.1.15,2013-06-27 14:57:00,
2013-06-27 11:02:00,70.0,70.0,29.94,NNE,18,0.0,0.0,100,0.00,,,0.11,Wunderground v.1.15,2013-06-27 15:02:00,
2013-06-27 11:07:00,70.4,70.4,29.94,NNE,18,0.0,1.0,100,0.00,,,0.11,Wunderground v.1.15,2013-06-27 15:07:00,
2013-06-27 11:12:00,71.1,71.1,29.94,NNE,18,0.0,0.0,100,0.00,,,0.11,Wunderground v.1.15,2013-06-27 15:12:00,
2013-06-27 11:17:00,71.8,71.8,29.94,NNE,18,0.0,0.0,100,0.00,,,0.11,Wunderground v.1.15,2013-06-27 15:17:00,
2013-06-27 11:22:00,72.4,72.4,29.94,NNE,18,0.0,1.0,100,0.00,,,0.11,Wunderground v.1.15,2013-06-27 15:22:00,
2013-06-27 11:27:00,72.8,72.8,29.93,NNE,18,0.0,1.0,100,0.00,,,0.11,Wunderground v.1.15,2013-06-27 15:27:00,
2013-06-27 11:32:00,73.1,73.1,29.94,NNE,18,0.0,0.0,100,0.00,,,0.11,Wunderground v.1.15,2013-06-27 15:32:00,
2013-06-27 11:37:00,73.6,73.3,29.93,NNE,18,0.0,0.0,99,0.00,,,0.11,Wunderground v.1.15,2013-06-27 15:37:00,
2013-06-27 11:42:00,74.2,73.0,29.93,NNE,18,0.0,1.0,96,0.00,,,0.11,Wunderground v.1.15,2013-06-27 15:42:00,
2013-06-27 11:47:00,74.8,73.9,29.93,NNE,18,0.0,1.0,97,0.00,,,0.11,Wunderground v.1.15,2013-06-27 15:47:00,
2013-06-27 11:52:00,75.5,74.6,29.93,NNE,18,0.0,1.0,97,0.00,,,0.11,Wunderground v.1.15,2013-06-27 15:52:00,
2013-06-27 11:57:00,76.1,74.2,29.93,NNE,18,0.0,1.0,94,0.00,,,0.11,Wunderground v.1.15,2013-06-27 15:57:00,
2013-06-27 12:02:00,76.6,74.4,29.93,NNE,18,0.0,1.0,93,0.00,,,0.11,Wunderground v.1.15,2013-06-27 16:02:00,
2013-06-27 12:07:00,77.0,74.8,29.92,NNE,18,0.0,1.0,93,0.00,,,0.11,Wunderground v.1.15,2013-06-27 16:07:00,
2013-06-27 12:12:00,77.2,75.3,29.92,NNE,18,0.0,1.0,94,0.00,,,0.11,Wunderground v.1.15,2013-06-27 16:12:00,
2013-06-27 12:17:00,77.4,74.9,29.92,NNE,18,0.0,1.0,92,0.00,,,0.11,Wunderground v.1.15,2013-06-27 16:17:00,
2013-06-27 12:22:00,77.6,75.1,29.92,NNE,18,0.0,1.0,92,0.00,,,0.11,Wunderground v.1.15,2013-06-27 16:22:00,
2013-06-27 12:27:00,77.5,74.3,29.92,NNE,18,0.0,1.0,90,0.00,,,0.11,Wunderground v.1.15,2013-06-27 16:27:00,
2013-06-27 12:32:00,77.4,74.6,29.92,NNE,18,0.0,0.0,91,0.00,,,0.11,Wunderground v.1.15,2013-06-27 16:32:00,
2013-06-27 12:37:00,77.4,74.6,29.92,NNE,18,0.0,0.0,91,0.00,,,0.11,Wunderground v.1.15,2013-06-27 16:37:00,
2013-06-27 12:42:00,77.5,74.7,29.92,NNE,18,0.0,0.0,91,0.00,,,0.11,Wunderground v.1.15,2013-06-27 16:42:00,
2013-06-27 12:47:00,77.6,74.4,29.92,NNE,18,0.0,0.0,90,0.00,,,0.11,Wunderground v.1.15,2013-06-27 16:47:00,
2013-06-27 12:52:00,78.0,74.2,29.92,East,94,0.0,1.0,88,0.00,,,0.11,Wunderground v.1.15,2013-06-27 16:52:00,
2013-06-27 12:57:00,78.5,75.3,29.92,East,94,0.0,1.0,90,0.00,,,0.11,Wunderground v.1.15,2013-06-27 16:57:00,
2013-06-27 13:02:00,78.5,74.3,29.92,East,94,0.0,0.0,87,0.00,,,0.11,Wunderground v.1.15,2013-06-27 17:02:00,
2013-06-27 13:07:00,79.0,74.8,29.91,East,94,0.0,0.0,87,0.00,,,0.11,Wunderground v.1.15,2013-06-27 17:07:00,
2013-06-27 13:12:00,79.3,74.4,29.92,East,94,0.0,1.0,85,0.00,,,0.11,Wunderground v.1.15,2013-06-27 17:12:00,
2013-06-27 13:17:00,79.6,75.4,29.91,East,94,0.0,1.0,87,0.00,,,0.11,Wunderground v.1.15,2013-06-27 17:17:00,
2013-06-27 13:22:00,80.0,76.1,29.91,East,94,0.0,1.0,88,0.00,,,0.11,Wunderground v.1.15,2013-06-27 17:22:00,
2013-06-27 13:27:00,80.3,76.1,29.91,North,350,0.0,2.0,87,0.00,,,0.11,Wunderground v.1.15,2013-06-27 17:27:00,
2013-06-27 13:32:00,80.8,76.2,29.92,North,355,1.0,2.0,86,0.00,,,0.11,Wunderground v.1.15,2013-06-27 17:32:00,
2013-06-27 13:37:00,81.3,76.4,29.91,North,355,0.0,2.0,85,0.00,,,0.11,Wunderground v.1.15,2013-06-27 17:37:00,
2013-06-27 13:42:00,81.8,75.8,29.91,NNE,13,0.0,3.0,82,0.00,,,0.11,Wunderground v.1.15,2013-06-27 17:42:00,
2013-06-27 13:47:00,82.1,76.4,29.91,NNW,338,0.0,3.0,83,0.00,,,0.11,Wunderground v.1.15,2013-06-27 17:47:00,
2013-06-27 13:52:00,82.4,76.3,29.91,NNW,338,0.0,1.0,82,0.00,,,0.11,Wunderground v.1.15,2013-06-27 17:52:00,
2013-06-27 13:57:00,82.2,75.4,29.91,NNW,338,0.0,2.0,80,0.00,,,0.11,Wunderground v.1.15,2013-06-27 17:57:00,
2013-06-27 14:02:00,82.2,76.2,29.91,NNW,338,0.0,1.0,82,0.00,,,0.11,Wunderground v.1.15,2013-06-27 18:02:00,
2013-06-27 14:07:00,82.4,76.0,29.91,NNW,338,0.0,2.0,81,0.00,,,0.11,Wunderground v.1.15,2013-06-27 18:07:00,
2013-06-27 14:12:00,82.4,76.3,29.90,NNW,338,0.0,0.0,82,0.00,,,0.11,Wunderground v.1.15,2013-06-27 18:12:00,
2013-06-27 14:17:00,82.4,76.0,29.90,NNW,338,0.0,2.0,81,0.00,,,0.11,Wunderground v.1.15,2013-06-27 18:17:00,
2013-06-27 14:22:00,82.5,76.1,29.90,NNW,338,0.0,2.0,81,0.00,,,0.11,Wunderground v.1.15,2013-06-27 18:22:00,
2013-06-27 14:27:00,82.4,75.2,29.90,North,360,0.0,3.0,79,0.00,,,0.11,Wunderground v.1.15,2013-06-27 18:27:00,
2013-06-27 14:32:00,82.4,76.0,29.90,North,360,0.0,1.0,81,0.00,,,0.11,Wunderground v.1.15,2013-06-27 18:32:00,
2013-06-27 14:37:00,82.4,76.3,29.90,North,360,1.0,1.0,82,0.00,,,0.11,Wunderground v.1.15,2013-06-27 18:37:00,
2013-06-27 14:42:00,82.5,75.7,29.90,North,360,0.0,1.0,80,0.00,,,0.11,Wunderground v.1.15,2013-06-27 18:42:00,
2013-06-27 14:47:00,82.5,76.1,29.89,North,360,0.0,1.0,81,0.00,,,0.11,Wunderground v.1.15,2013-06-27 18:47:00,
2013-06-27 14:52:00,82.3,75.5,29.89,North,360,0.0,0.0,80,0.00,,,0.11,Wunderground v.1.15,2013-06-27 18:52:00,
2013-06-27 14:57:00,82.2,76.2,29.89,North,360,0.0,0.0,82,0.00,,,0.11,Wunderground v.1.15,2013-06-27 18:57:00,
2013-06-27 15:02:00,81.9,74.7,29.89,North,360,0.0,1.0,79,0.00,,,0.11,Wunderground v.1.15,2013-06-27 19:02:00,
2013-06-27 15:07:00,81.7,76.7,29.89,North,360,0.0,1.0,85,0.00,,,0.11,Wunderground v.1.15,2013-06-27 19:07:00,
2013-06-27 15:08:00,81.7,76.4,29.89,North,360,0.0,1.0,84,0.00,,,0.11,Wunderground v.1.15,2013-06-27 19:08:00,
2013-06-27 15:13:00,81.7,76.0,29.89,North,360,0.0,1.0,83,0.00,,,0.11,Wunderground v.1.15,2013-06-27 19:13:00,
2013-06-27 15:18:00,81.9,76.2,29.89,North,360,0.0,1.0,83,0.00,,,0.11,Wunderground v.1.15,2013-06-27 19:18:00,
2013-06-27 15:23:00,82.3,75.9,29.89,NNE,33,0.0,1.0,81,0.00,,,0.11,Wunderground v.1.15,2013-06-27 19:23:00,
2013-06-27 15:28:00,82.7,76.3,29.88,NE,34,0.0,2.0,81,0.00,,,0.11,Wunderground v.1.15,2013-06-27 19:28:00,
2013-06-27 15:33:00,82.7,76.3,29.87,NE,34,0.0,1.0,81,0.00,,,0.11,Wunderground v.1.15,2013-06-27 19:33:00,
2013-06-27 15:38:00,82.7,76.3,29.87,NE,34,0.0,1.0,81,0.00,,,0.11,Wunderground v.1.15,2013-06-27 19:38:00,
2013-06-27 15:43:00,82.6,75.8,29.87,NE,34,0.0,1.0,80,0.00,,,0.11,Wunderground v.1.15,2013-06-27 19:43:00,
2013-06-27 15:48:00,82.6,76.2,29.87,NE,49,0.0,1.0,81,0.00,,,0.11,Wunderground v.1.15,2013-06-27 19:48:00,
2013-06-27 15:53:00,82.6,76.2,29.87,NE,51,0.0,1.0,81,0.00,,,0.11,Wunderground v.1.15,2013-06-27 19:53:00,
2013-06-27 15:58:00,82.5,76.4,29.87,NE,51,0.0,1.0,82,0.00,,,0.11,Wunderground v.1.15,2013-06-27 19:58:00,
2013-06-27 16:03:00,82.3,74.0,29.87,NE,51,0.0,2.0,76,0.00,,,0.11,Wunderground v.1.15,2013-06-27 20:03:00,
2013-06-27 16:08:00,82.2,74.3,29.86,NE,51,0.0,2.0,77,0.00,,,0.11,Wunderground v.1.15,2013-06-27 20:08:00,
2013-06-27 16:13:00,82.2,73.9,29.86,NE,51,1.0,2.0,76,0.00,,,0.11,Wunderground v.1.15,2013-06-27 20:13:00,
2013-06-27 16:18:00,82.4,74.8,29.86,NE,51,0.0,2.0,78,0.00,,,0.11,Wunderground v.1.15,2013-06-27 20:18:00,
2013-06-27 16:23:00,82.6,75.4,29.86,NE,51,1.0,1.0,79,0.00,,,0.11,Wunderground v.1.15,2013-06-27 20:23:00,
2013-06-27 16:28:00,82.6,75.0,29.85,NNE,16,0.0,3.0,78,0.00,,,0.11,Wunderground v.1.15,2013-06-27 20:28:00,
2013-06-27 16:33:00,82.5,75.7,29.85,NNE,22,0.0,1.0,80,0.00,,,0.11,Wunderground v.1.15,2013-06-27 20:33:00,
2013-06-27 16:38:00,82.5,76.1,29.85,North,5,1.0,2.0,81,0.00,,,0.11,Wunderground v.1.15,2013-06-27 20:38:00,
2013-06-27 16:43:00,82.3,75.1,29.85,NNE,32,0.0,1.0,79,0.00,,,0.11,Wunderground v.1.15,2013-06-27 20:43:00,
2013-06-27 16:48:00,82.2,75.4,29.85,NNE,32,0.0,1.0,80,0.00,,,0.11,Wunderground v.1.15,2013-06-27 20:48:00,
2013-06-27 16:53:00,82.0,74.8,29.85,North,360,0.0,4.0,79,0.00,,,0.11,Wunderground v.1.15,2013-06-27 20:53:00,
2013-06-27 16:58:00,81.6,74.8,29.85,NNE,16,0.0,4.0,80,0.00,,,0.11,Wunderground v.1.15,2013-06-27 20:58:00,
2013-06-27 17:03:00,81.2,74.8,29.85,NNE,16,0.0,1.0,81,0.00,,,0.11,Wunderground v.1.15,2013-06-27 21:03:00,
2013-06-27 17:09:00,80.9,74.9,29.85,NNE,16,0.0,1.0,82,0.00,,,0.11,Wunderground v.1.15,2013-06-27 21:09:00,
2013-06-27 17:16:00,80.4,75.1,29.85,NNE,16,0.0,1.0,84,0.00,,,0.11,Wunderground v.1.15,2013-06-27 21:16:00,
2013-06-27 17:21:00,80.1,74.8,29.86,ENE,58,0.0,2.0,84,0.00,,,0.11,Wunderground v.1.15,2013-06-27 21:21:00,
2013-06-27 17:26:00,79.8,75.2,29.86,ENE,58,0.0,2.0,86,0.00,,,0.11,Wunderground v.1.15,2013-06-27 21:26:00,
2013-06-27 17:31:00,79.4,75.5,29.86,ENE,58,0.0,1.0,88,0.00,,,0.11,Wunderground v.1.15,2013-06-27 21:31:00,
2013-06-27 17:36:00,78.8,74.3,29.86,SSE,162,0.0,1.0,86,0.00,,,0.11,Wunderground v.1.15,2013-06-27 21:36:00,
2013-06-27 17:42:00,78.3,74.1,29.86,SSE,162,0.0,2.0,87,0.00,,,0.11,Wunderground v.1.15,2013-06-27 21:42:00,
2013-06-27 17:47:00,77.8,74.0,29.86,SSE,162,0.0,2.0,88,0.00,,,0.11,Wunderground v.1.15,2013-06-27 21:47:00,
2013-06-27 17:52:00,77.5,74.0,29.85,East,84,0.0,0.0,89,0.00,,,0.11,Wunderground v.1.15,2013-06-27 21:52:00,
2013-06-27 17:57:00,77.2,74.0,29.85,NNW,335,0.0,2.0,90,0.00,,,0.11,Wunderground v.1.15,2013-06-27 21:57:00,
2013-06-27 18:02:00,77.0,73.8,29.85,NNW,347,0.0,1.0,90,0.00,,,0.11,Wunderground v.1.15,2013-06-27 22:02:00,
2013-06-27 18:08:00,77.0,74.2,29.84,North,11,0.0,1.0,91,0.00,,,0.11,Wunderground v.1.15,2013-06-27 22:08:00,
2013-06-27 18:13:00,77.1,73.3,29.85,North,5,0.0,3.0,88,0.00,,,0.11,Wunderground v.1.15,2013-06-27 22:13:00,
2013-06-27 18:18:00,77.0,72.8,29.85,NNE,16,0.0,3.0,87,0.00,,,0.11,Wunderground v.1.15,2013-06-27 22:18:00,
2013-06-27 18:23:00,77.0,73.8,29.85,NNE,16,0.0,1.0,90,0.00,,,0.11,Wunderground v.1.15,2013-06-27 22:23:00,
2013-06-27 18:29:00,76.7,72.2,29.85,NNE,15,1.0,2.0,86,0.00,,,0.11,Wunderground v.1.15,2013-06-27 22:29:00,
2013-06-27 18:34:00,76.2,71.7,29.85,North,360,1.0,1.0,86,0.00,,,0.11,Wunderground v.1.15,2013-06-27 22:34:00,
2013-06-27 18:39:00,75.7,71.2,29.85,North,360,1.0,1.0,86,0.00,,,0.11,Wunderground v.1.15,2013-06-27 22:39:00,
2013-06-27 18:44:00,75.3,70.8,29.85,North,360,0.0,1.0,86,0.00,,,0.11,Wunderground v.1.15,2013-06-27 22:44:00,
2013-06-27 18:49:00,74.9,70.4,29.85,North,360,0.0,0.0,86,0.00,,,0.11,Wunderground v.1.15,2013-06-27 22:49:00,
2013-06-27 18:54:00,74.6,70.8,29.85,North,360,0.0,0.0,88,0.00,,,0.11,Wunderground v.1.15,2013-06-27 22:54:00,
2013-06-27 19:00:00,74.4,70.9,29.85,North,5,1.0,1.0,89,0.00,,,0.11,Wunderground v.1.15,2013-06-27 23:00:00,
2013-06-27 19:05:00,74.2,70.7,29.86,North,5,0.0,1.0,89,0.00,,,0.11,Wunderground v.1.15,2013-06-27 23:05:00,
2013-06-27 19:11:00,74.1,71.3,29.86,North,5,0.0,1.0,91,0.00,,,0.11,Wunderground v.1.15,2013-06-27 23:11:00,
2013-06-27 19:17:00,74.0,71.2,29.86,North,5,0.0,1.0,91,0.00,,,0.11,Wunderground v.1.15,2013-06-27 23:17:00,
2013-06-27 19:22:00,74.0,71.2,29.87,North,5,0.0,0.0,91,0.00,,,0.11,Wunderground v.1.15,2013-06-27 23:22:00,
2013-06-27 19:27:00,74.0,71.2,29.87,North,5,0.0,1.0,91,0.00,,,0.11,Wunderground v.1.15,2013-06-27 23:27:00,
2013-06-27 19:32:00,74.0,71.5,29.88,North,5,0.0,0.0,92,0.00,,,0.11,Wunderground v.1.15,2013-06-27 23:32:00,
2013-06-27 19:37:00,74.0,71.5,29.88,North,5,0.0,0.0,92,0.00,,,0.11,Wunderground v.1.15,2013-06-27 23:37:00,
2013-06-27 19:43:00,73.9,71.4,29.88,North,5,0.0,0.0,92,0.00,,,0.11,Wunderground v.1.15,2013-06-27 23:43:00,
2013-06-27 19:48:00,73.8,71.6,29.88,North,5,0.0,0.0,93,0.00,,,0.11,Wunderground v.1.15,2013-06-27 23:48:00,
2013-06-27 19:53:00,73.7,71.5,29.87,North,5,0.0,0.0,93,0.00,,,0.11,Wunderground v.1.15,2013-06-27 23:53:00,
2013-06-27 19:58:00,73.6,71.8,29.87,North,5,0.0,0.0,94,0.00,,,0.11,Wunderground v.1.15,2013-06-27 23:58:00,
2013-06-27 20:04:00,73.4,71.9,29.87,North,5,0.0,0.0,95,0.00,,,0.11,Wunderground v.1.15,2013-06-28 00:04:00,
2013-06-27 20:09:00,73.2,71.7,29.87,North,5,0.0,0.0,95,0.00,,,0.11,Wunderground v.1.15,2013-06-28 00:09:00,
2013-06-27 20:14:00,73.1,71.6,29.86,North,5,0.0,0.0,95,0.00,,,0.11,Wunderground v.1.15,2013-06-28 00:14:00,
2013-06-27 20:19:00,72.9,71.1,29.87,North,5,0.0,0.0,94,0.00,,,0.11,Wunderground v.1.15,2013-06-28 00:19:00,
2013-06-27 20:24:00,72.8,71.0,29.87,North,5,0.0,0.0,94,0.00,,,0.11,Wunderground v.1.15,2013-06-28 00:24:00,
2013-06-27 20:29:00,72.6,71.1,29.87,North,5,0.0,0.0,95,0.00,,,0.11,Wunderground v.1.15,2013-06-28 00:29:00,
2013-06-27 20:34:00,72.5,71.0,29.87,North,5,0.0,0.0,95,0.00,,,0.11,Wunderground v.1.15,2013-06-28 00:34:00,
2013-06-27 20:40:00,72.4,71.2,29.87,North,5,0.0,0.0,96,0.00,,,0.11,Wunderground v.1.15,2013-06-28 00:40:00,
2013-06-27 20:45:00,72.3,71.1,29.87,North,5,0.0,0.0,96,0.00,,,0.11,Wunderground v.1.15,2013-06-28 00:45:00,
2013-06-27 20:50:00,72.1,70.9,29.88,North,5,0.0,0.0,96,0.00,,,0.11,Wunderground v.1.15,2013-06-28 00:50:00,
2013-06-27 20:55:00,71.9,71.0,29.88,North,5,0.0,0.0,97,0.00,,,0.11,Wunderground v.1.15,2013-06-28 00:55:00,
2013-06-27 21:00:00,71.7,70.8,29.88,North,5,0.0,0.0,97,0.00,,,0.11,Wunderground v.1.15,2013-06-28 01:00:00,
2013-06-27 21:06:00,71.6,71.0,29.87,North,5,0.0,0.0,98,0.00,,,0.11,Wunderground v.1.15,2013-06-28 01:06:00,
2013-06-27 21:11:00,71.5,70.9,29.87,North,5,0.0,0.0,98,0.00,,,0.11,Wunderground v.1.15,2013-06-28 01:11:00,
2013-06-27 21:16:00,71.3,70.7,29.87,North,5,0.0,0.0,98,0.00,,,0.11,Wunderground v.1.15,2013-06-28 01:16:00,
2013-06-27 21:21:00,71.2,70.6,29.88,North,5,0.0,0.0,98,0.00,,,0.11,Wunderground v.1.15,2013-06-28 01:21:00,
2013-06-27 21:26:00,71.1,70.8,29.89,North,5,0.0,0.0,99,0.00,,,0.11,Wunderground v.1.15,2013-06-28 01:26:00,
2013-06-27 21:32:00,71.1,70.8,29.90,North,5,0.0,0.0,99,0.00,,,0.11,Wunderground v.1.15,2013-06-28 01:32:00,
2013-06-27 21:37:00,71.0,70.7,29.90,North,5,0.0,0.0,99,0.00,,,0.11,Wunderground v.1.15,2013-06-28 01:37:00,
2013-06-27 21:42:00,70.8,70.8,29.90,North,5,0.0,0.0,100,0.00,,,0.11,Wunderground v.1.15,2013-06-28 01:42:00,
2013-06-27 21:47:00,70.7,70.7,29.90,North,5,0.0,0.0,100,0.00,,,0.11,Wunderground v.1.15,2013-06-28 01:47:00,
2013-06-27 21:52:00,70.7,70.7,29.90,North,5,0.0,0.0,100,0.00,,,0.11,Wunderground v.1.15,2013-06-28 01:52:00,
2013-06-27 21:58:00,70.6,70.6,29.91,North,5,0.0,0.0,100,0.00,,,0.11,Wunderground v.1.15,2013-06-28 01:58:00,
2013-06-27 22:03:00,70.6,70.6,29.91,North,5,1.0,1.0,100,0.00,,,0.11,Wunderground v.1.15,2013-06-28 02:03:00,
2013-06-27 22:08:00,70.6,70.6,29.91,North,5,0.0,1.0,100,0.00,,,0.11,Wunderground v.1.15,2013-06-28 02:08:00,
2013-06-27 22:13:00,70.6,70.6,29.91,North,5,0.0,0.0,100,0.00,,,0.11,Wunderground v.1.15,2013-06-28 02:13:00,
2013-06-27 22:18:00,70.5,70.5,29.90,North,5,0.0,0.0,100,0.00,,,0.11,Wunderground v.1.15,2013-06-28 02:18:00,
2013-06-27 22:23:00,70.5,70.5,29.90,North,5,0.0,0.0,100,0.00,,,0.11,Wunderground v.1.15,2013-06-28 02:23:00,
2013-06-27 22:28:00,70.5,70.5,29.90,North,5,0.0,0.0,100,0.00,,,0.11,Wunderground v.1.15,2013-06-28 02:28:00,
2013-06-27 22:33:00,70.5,70.5,29.90,North,5,0.0,0.0,100,0.00,,,0.11,Wunderground v.1.15,2013-06-28 02:33:00,
2013-06-27 22:39:00,70.4,70.4,29.90,North,5,0.0,0.0,100,0.00,,,0.11,Wunderground v.1.15,2013-06-28 02:39:00,
2013-06-27 22:44:00,70.4,70.4,29.90,North,5,0.0,0.0,100,0.00,,,0.11,Wunderground v.1.15,2013-06-28 02:44:00,
2013-06-27 22:49:00,70.4,70.4,29.91,North,5,0.0,0.0,100,0.00,,,0.11,Wunderground v.1.15,2013-06-28 02:49:00,
2013-06-27 22:54:00,70.4,70.4,29.92,North,5,0.0,0.0,100,0.00,,,0.11,Wunderground v.1.15,2013-06-28 02:54:00,
2013-06-27 22:59:00,70.3,70.3,29.91,North,5,0.0,0.0,100,0.00,,,0.11,Wunderground v.1.15,2013-06-28 02:59:00,
2013-06-27 23:05:00,70.3,70.3,29.91,North,5,0.0,0.0,100,0.00,,,0.11,Wunderground v.1.15,2013-06-28 03:05:00,
2013-06-27 23:10:00,70.3,70.3,29.91,North,5,0.0,0.0,100,0.00,,,0.11,Wunderground v.1.15,2013-06-28 03:10:00,
2013-06-27 23:15:00,70.3,70.3,29.91,North,5,0.0,0.0,100,0.00,,,0.11,Wunderground v.1.15,2013-06-28 03:15:00,
2013-06-27 23:20:00,70.4,70.4,29.91,North,5,0.0,0.0,100,0.00,,,0.11,Wunderground v.1.15,2013-06-28 03:20:00,
2013-06-27 23:25:00,70.4,70.4,29.90,North,5,0.0,0.0,100,0.00,,,0.11,Wunderground v.1.15,2013-06-28 03:25:00,
2013-06-27 23:31:00,70.3,70.3,29.90,North,5,0.0,0.0,100,0.00,,,0.11,Wunderground v.1.15,2013-06-28 03:31:00,
2013-06-27 23:36:00,70.3,70.3,29.90,North,5,0.0,0.0,100,0.00,,,0.11,Wunderground v.1.15,2013-06-28 03:36:00,
2013-06-27 23:41:00,70.3,70.3,29.90,North,5,0.0,0.0,100,0.00,,,0.11,Wunderground v.1.15,2013-06-28 03:41:00,
2013-06-27 23:46:00,70.3,70.3,29.90,North,5,0.0,0.0,100,0.00,,,0.11,Wunderground v.1.15,2013-06-28 03:46:00,
2013-06-27 23:51:00,70.3,70.3,29.90,North,5,0.0,0.0,100,0.00,,,0.11,Wunderground v.1.15,2013-06-28 03:51:00,
2013-06-27 23:57:00,70.3,70.3,29.91,North,5,0.0,0.0,100,0.00,,,0.11,Wunderground v.1.15,2013-06-28 03:57:00,